Wind_Speed
90 89 89 87 86 73 65 59 56 56 56 55 54 52 49 47 45 39 33 25 28 32 46 59 62 69 70
86 86 87 88 77 67 61 56 56 56 56 56 53 52 50 46 42 41 38 34 29 31 44 47 60 63 73
83 85 87 77 68 63 58 58 57 58 57 55 53 50 48 46 44 42 41 39 38 39 39 45 49 46 71
84 87 82 70 65 60 58 58 58 57 55 54 54 52 52 48 48 47 45 45 45 44 47 53 55 56 58
85 80 71 66 62 57 58 59 58 56 56 56 56 56 56 55 55 55 54 51 50 52 54 55 56 57 60
77 71 65 62 57 57 58 59 58 58 58 59 59 59 60 60 60 60 60 57 55 55 56 57 61 64 65
67 65 63 58 55 57 58 58 59 60 61 63 64 65 65 65 66 65 62 58 56 56 58 60 61 63 64
63 62 58 55 56 56 58 60 62 64 65 66 68 69 69 69 68 65 61 58 58 58 59 60 62 64 66
60 58 55 55 56 57 60 63 65 67 69 71 72 72 72 71 67 62 59 61 62 62 62 63 64 65 67
56 54 53 54 56 60 64 67 70 72 74 74 74 75 75 71 64 64 65 65 65 65 64 66 65 66 68
52 50 52 57 60 64 67 71 73 75 75 76 77 77 72 68 69 68 65 62 61 62 62 61 61 62 62
50 53 57 60 62 67 71 74 75 75 76 79 77 71 70 72 68 63 63 61 59 57 58 58 58 58 59
55 57 59 62 67 70 73 75 76 77 78 75 72 72 73 71 69 62 59 56 56 57 56 57 57 56 55
57 58 62 67 71 74 77 78 80 79 73 71 73 73 71 70 67 63 59 55 51 50 53 56 57 55 54
60 62 66 70 73 77 79 80 80 73 70 72 72 70 71 69 66 62 57 53 51 50 51 55 57 57 58
64 67 71 74 77 79 80 80 73 70 73 70 66 67 70 69 66 60 56 54 54 53 52 55 58 55 57
67 72 75 78 81 82 80 73 70 73 70 67 65 67 67 66 65 59 57 58 57 56 52 51 55 54 50
Wind_Direction
302 301 304 306 310 308 307 305 305 307 308 312 313 314 313 314 314 311 307 301 268 258 245 236 238 233 235
299 301 303 307 308 306 307 304 306 308 309 310 311 311 311 309 305 303 301 295 284 267 255 251 245 245 238
299 301 304 307 305 305 306 306 306 306 309 308 309 310 309 310 307 300 291 286 279 272 269 263 259 253 244
299 301 303 304 304 304 304 303 305 306 306 306 307 308 308 307 304 302 295 284 276 271 265 263 263 260 259
298 301 303 302 302 301 301 303 304 304 305 306 308 309 309 308 306 303 299 290 279 271 267 265 263 262 259
299 299 301 300 300 300 302 303 302 303 307 307 307 308 307 306 304 302 298 291 283 275 271 267 264 262 261
298 299 299 299 300 300 300 301 302 304 305 305 306 307 307 306 304 302 297 292 286 279 274 270 268 266 263
297 297 297 298 300 299 299 301 303 304 305 306 306 307 306 305 303 300 296 291 289 285 280 275 272 269 267
295 296 297 299 298 299 301 303 304 304 305 305 306 306 306 305 303 299 296 293 290 286 282 278 275 272 269
294 295 298 299 300 302 303 303 304 305 306 307 307 307 306 304 302 299 296 293 289 286 281 278 276 273 271
295 296 299 300 302 303 303 304 305 305 306 307 307 306 306 304 303 300 297 294 290 287 283 280 277 274 272
296 300 300 303 304 305 305 305 305 306 307 307 307 307 306 304 302 301 299 297 293 290 287 283 279 276 274
299 302 303 304 305 306 307 307 307 309 309 308 308 308 306 304 304 303 300 297 295 293 288 283 281 278 276
301 301 302 304 305 308 309 310 310 311 309 309 308 307 306 305 305 304 302 300 296 292 289 286 283 281 279
299 301 303 305 308 309 311 310 311 310 309 308 307 307 306 307 306 305 303 301 297 293 290 287 285 284 282
302 304 306 308 309 310 310 310 309 308 308 307 307 307 306 307 307 306 304 301 298 294 291 287 284 280 279
303 306 308 310 310 310 310 308 307 308 307 308 308 307 308 308 307 306 305 302 301 299 293 287 283 280 276
Height
10554 10545 10536 10528 10519 10510 10502 10495 10490 10484 10478 10471 10464 10460 10456 10450 10444 10442 10438 10434 10434 10435 10439 10446 10448 10455 10459
10538 10529 10521 10513 10504 10495 10488 10483 10478 10472 10465 10459 10453 10448 10443 10440 10436 10432 10429 10426 10426 10427 10428 10432 10433 10437 10442
10522 10514 10506 10497 10489 10482 10475 10470 10464 10458 10452 10446 10441 10437 10433 10429 10425 10422 10420 10416 10414 10414 10415 10416 10417 10419 10423
10506 10498 10489 10481 10475 10468 10462 10457 10451 10446 10440 10435 10430 10426 10420 10416 10413 10409 10406 10404 10402 10401 10400 10400 10401 10402 10403
10488 10481 10473 10467 10460 10454 10449 10444 10438 10433 10427 10422 10416 10411 10405 10400 10396 10391 10388 10386 10385 10383 10381 10381 10381 10382 10382
10472 10465 10459 10453 10447 10441 10436 10430 10424 10420 10413 10407 10402 10396 10391 10386 10380 10374 10370 10366 10364 10362 10361 10360 10360 10359 10359
10457 10451 10444 10439 10433 10428 10422 10416 10410 10405 10399 10393 10386 10380 10374 10368 10361 10355 10350 10346 10342 10340 10339 10337 10336 10336 10335
10443 10436 10430 10424 10419 10413 10408 10402 10396 10389 10383 10376 10369 10362 10355 10349 10342 10335 10329 10325 10321 10319 10317 10315 10313 10312 10311
10427 10422 10416 10411 10405 10400 10394 10387 10380 10373 10366 10359 10351 10343 10336 10329 10322 10316 10310 10304 10300 10296 10292 10289 10287 10286 10284
10413 10408 10403 10398 10392 10386 10379 10372 10364 10356 10348 10339 10331 10323 10314 10306 10300 10294 10288 10283 10277 10273 10268 10264 10263 10261 10258
10400 10395 10391 10385 10378 10371 10363 10356 10348 10339 10328 10320 10311 10301 10293 10285 10278 10271 10264 10260 10254 10248 10243 10241 10239 10237 10235
10388 10383 10377 10370 10362 10355 10347 10338 10329 10321 10311 10300 10289 10281 10272 10264 10257 10253 10245 10238 10231 10226 10221 10217 10215 10213 10212
10374 10368 10361 10354 10346 10338 10329 10320 10311 10302 10291 10280 10269 10260 10252 10242 10234 10231 10225 10221 10213 10204 10199 10194 10191 10190 10189
10361 10354 10347 10339 10330 10321 10310 10300 10290 10281 10271 10260 10250 10241 10231 10223 10215 10209 10204 10200 10196 10188 10179 10172 10169 10168 10167
10346 10340 10332 10323 10314 10304 10293 10282 10271 10262 10254 10245 10233 10221 10211 10203 10195 10190 10185 10181 10176 10171 10164 10155 10150 10146 10142
10329 10322 10314 10305 10295 10286 10275 10264 10253 10244 10237 10228 10219 10207 10194 10184 10176 10170 10167 10162 10156 10151 10145 10136 10128 10129 10123
10313 10305 10296 10286 10276 10266 10256 10246 10237 10227 10218 10210 10201 10190 10179 10168 10156 10153 10149 10142 10135 10128 10123 10117 10106 10103 10107